{"data":{"norad_id":58420,"intl_designator":"2023-180U","name":"STARLINK-30899","alt_names":[],"object_type":"PAYLOAD","status":"ACTIVE","operator":null,"country":"US","launch_date":"2023-11-22","launch_site_code":"AFETR","launch_vehicle":null,"mission":null,"orbit_class":"UNKNOWN","rcs_meters":null,"size_class":null,"mass_kg":null,"dimensions":null,"purposes":["comms"],"wikipedia_slug":null,"has_3d_model":false,"image_url":null,"decayed_at":null,"tle_current":{"epoch":"2026-09-20T15:11:13.622784Z","epoch_age_seconds":135570,"freshness":"FRESH","line1":"1 58420U 23180U   26263.63279656  .00000291  00000+0  20091-4 0  9993","line2":"2 58420  43.0031  31.3032 0001584 269.2169  90.8501 15.27579552157326","mean_motion":15.27579552,"eccentricity":0.0001584,"inclination_deg":43.0031,"raan_deg":31.3032,"arg_perigee_deg":269.2169,"mean_anomaly_deg":90.8501,"bstar":2.0091e-5,"rev_number":15732,"period_min":94.266776359677,"perigee_km":481.96362542304,"apogee_km":484.13724960325,"semimajor_km":6861.1874375131,"source":"CELESTRAK","updated_at":"2026-09-21T09:00:33.873867Z"}}}